BZN191 KPWM-KBTV

Flight info

Callsign BZN191
Flight time 0h 31m
Altitude 20000
Route HSKEL3 HSKEL GRNMT BTV
Aircraft B736/M-SDE2E3FGHIRWXY/LB1

Departure

Time 2026-05-08 02:30
Airport Portland International Jetport (KPWM)

Arrival

Time 2026-05-08 03:01
Airport Patrick Leahy Burlington International Airport (KBTV)
Time Latitude Longitude Altitude Speed Heading
2026-05-08 01:53 43.64705 -70.31255 69 ft 0 kts 49°
2026-05-08 02:18 43.64703 -70.31260 69 ft 3 kts 48°
2026-05-08 02:19 43.64685 -70.31285 69 ft 4 kts 53°
2026-05-08 02:19 43.64674 -70.31316 60 ft 4 kts 93°
2026-05-08 02:19 43.64681 -70.31341 67 ft 1 kts 140°
2026-05-08 02:19 43.64684 -70.31345 70 ft 1 kts 140°
2026-05-08 02:22 43.64673 -70.31332 63 ft 6 kts 140°
2026-05-08 02:22 43.64617 -70.31259 69 ft 15 kts 124°
2026-05-08 02:22 43.64596 -70.31099 67 ft 19 kts 94°
2026-05-08 02:23 43.64582 -70.30902 65 ft 22 kts 96°
2026-05-08 02:23 43.64568 -70.30697 61 ft 20 kts 95°
2026-05-08 02:23 43.64556 -70.30503 56 ft 21 kts 94°
2026-05-08 02:23 43.64580 -70.30326 54 ft 17 kts 73°
2026-05-08 02:24 43.64582 -70.30169 51 ft 16 kts 95°
2026-05-08 02:24 43.64573 -70.30018 50 ft 15 kts 94°
2026-05-08 02:24 43.64561 -70.29937 54 ft 0 kts 129°
2026-05-08 02:27 43.64549 -70.29925 52 ft 7 kts 148°
2026-05-08 02:27 43.64469 -70.29908 54 ft 14 kts 177°
2026-05-08 02:27 43.64407 -70.29980 55 ft 13 kts 277°
2026-05-08 02:28 43.64411 -70.30015 55 ft 0 kts 277°
2026-05-08 02:29 43.64412 -70.30027 52 ft 11 kts 277°
2026-05-08 02:29 43.64442 -70.30462 58 ft 81 kts 275°
2026-05-08 02:29 43.64522 -70.31529 73 ft 139 kts 278°
2026-05-08 02:30 43.64626 -70.32913 513 ft 143 kts 273°
2026-05-08 02:30 43.64681 -70.34320 1032 ft 151 kts 280°
2026-05-08 02:30 43.64827 -70.35735 1676 ft 149 kts 279°
2026-05-08 02:30 43.64939 -70.37234 2114 ft 169 kts 278°
2026-05-08 02:31 43.65065 -70.38986 2430 ft 197 kts 278°
2026-05-08 02:31 43.65206 -70.40994 2677 ft 224 kts 277°
2026-05-08 02:31 43.65359 -70.43250 3150 ft 241 kts 277°
2026-05-08 02:31 43.65628 -70.45560 3960 ft 244 kts 284°
2026-05-08 02:32 43.66065 -70.47848 4774 ft 248 kts 286°
2026-05-08 02:32 43.66529 -70.50162 5606 ft 253 kts 286°
2026-05-08 02:32 43.66998 -70.52518 6499 ft 255 kts 286°
2026-05-08 02:32 43.67464 -70.54889 7382 ft 258 kts 285°
2026-05-08 02:33 43.67931 -70.57313 8226 ft 263 kts 285°
2026-05-08 02:33 43.68401 -70.59773 9131 ft 267 kts 285°
2026-05-08 02:33 43.68873 -70.62267 10083 ft 269 kts 284°
2026-05-08 02:33 43.69344 -70.64783 10760 ft 284 kts 283°
2026-05-08 02:34 43.69863 -70.67555 11000 ft 311 kts 283°
2026-05-08 02:34 43.70424 -70.70550 11385 ft 330 kts 283°
2026-05-08 02:34 43.71001 -70.73645 12207 ft 334 kts 283°
2026-05-08 02:34 43.71564 -70.76757 13190 ft 333 kts 279°
2026-05-08 02:35 43.71729 -70.79928 14122 ft 331 kts 266°
2026-05-08 02:35 43.71474 -70.83100 14996 ft 333 kts 258°
2026-05-08 02:35 43.70791 -70.86162 15869 ft 335 kts 249°
2026-05-08 02:35 43.69918 -70.89150 16713 ft 337 kts 248°
2026-05-08 02:36 43.69033 -70.92159 17557 ft 338 kts 247°
2026-05-08 02:36 43.68156 -70.95186 18389 ft 339 kts 247°
2026-05-08 02:36 43.67285 -70.98216 19181 ft 340 kts 247°
2026-05-08 02:36 43.66495 -71.01337 19730 ft 349 kts 254°
2026-05-08 02:37 43.66136 -71.04707 19836 ft 361 kts 262°
2026-05-08 02:37 43.66116 -71.08150 19842 ft 367 kts 269°
2026-05-08 02:37 43.66546 -71.11648 19858 ft 371 kts 277°
2026-05-08 02:37 43.67166 -71.15126 19856 ft 373 kts 277°
2026-05-08 02:38 43.67806 -71.18604 19859 ft 374 kts 278°
2026-05-08 02:38 43.68449 -71.22088 19848 ft 374 kts 278°
2026-05-08 02:38 43.69087 -71.25569 19854 ft 374 kts 278°
2026-05-08 02:38 43.69719 -71.29050 19847 ft 373 kts 278°
2026-05-08 02:39 43.70343 -71.32525 19849 ft 372 kts 277°
2026-05-08 02:39 43.70753 -71.34820 19849 ft 372 kts 278°
2026-05-08 02:39 43.71369 -71.38289 19851 ft 371 kts 277°
2026-05-08 02:39 43.71982 -71.41753 19850 ft 371 kts 278°
2026-05-08 02:40 43.72593 -71.45219 19855 ft 371 kts 277°
2026-05-08 02:40 43.73202 -71.48678 19851 ft 371 kts 277°
2026-05-08 02:40 43.73810 -71.52141 19852 ft 371 kts 277°
2026-05-08 02:40 43.74418 -71.55611 19852 ft 371 kts 278°
2026-05-08 02:41 43.75023 -71.59072 19854 ft 371 kts 278°
2026-05-08 02:41 43.75628 -71.62539 19851 ft 371 kts 278°
2026-05-08 02:41 43.76234 -71.66014 19856 ft 371 kts 278°
2026-05-08 02:41 43.76837 -71.69484 19855 ft 371 kts 278°
2026-05-08 02:42 43.77439 -71.72951 19848 ft 371 kts 278°
2026-05-08 02:42 43.78041 -71.76428 19849 ft 371 kts 278°
2026-05-08 02:42 43.78641 -71.79896 19850 ft 371 kts 278°
2026-05-08 02:42 43.79240 -71.83367 19851 ft 371 kts 278°
2026-05-08 02:43 43.79838 -71.86841 19848 ft 370 kts 278°
2026-05-08 02:43 43.80433 -71.90306 19853 ft 370 kts 278°
2026-05-08 02:43 43.81028 -71.93770 19856 ft 370 kts 278°
2026-05-08 02:43 43.81622 -71.97239 19851 ft 370 kts 277°
2026-05-08 02:44 43.82213 -72.00706 19853 ft 370 kts 277°
2026-05-08 02:44 43.82806 -72.04180 19846 ft 371 kts 278°
2026-05-08 02:44 43.83390 -72.07612 19862 ft 371 kts 278°
2026-05-08 02:44 43.83990 -72.11139 19863 ft 372 kts 278°
2026-05-08 02:45 43.84572 -72.14578 19858 ft 372 kts 278°
2026-05-08 02:45 43.85163 -72.18069 19857 ft 372 kts 277°
2026-05-08 02:45 43.85751 -72.21554 19863 ft 372 kts 277°
2026-05-08 02:45 43.86340 -72.25044 19860 ft 368 kts 277°
2026-05-08 02:46 43.86917 -72.28459 19498 ft 362 kts 277°
2026-05-08 02:46 43.87484 -72.31823 18945 ft 356 kts 278°
2026-05-08 02:46 43.88040 -72.35131 18333 ft 349 kts 278°
2026-05-08 02:46 43.88584 -72.38385 17678 ft 344 kts 278°
2026-05-08 02:47 43.89120 -72.41599 17029 ft 340 kts 278°
2026-05-08 02:47 43.89648 -72.44770 16486 ft 334 kts 278°
2026-05-08 02:47 43.90166 -72.47888 15872 ft 330 kts 279°
2026-05-08 02:47 43.90679 -72.50981 15256 ft 327 kts 279°
2026-05-08 02:48 43.91185 -72.54045 14651 ft 325 kts 279°
2026-05-08 02:48 43.91688 -72.57089 14041 ft 323 kts 280°
2026-05-08 02:48 43.92187 -72.60114 13447 ft 319 kts 280°
2026-05-08 02:48 43.92679 -72.63109 12856 ft 317 kts 281°
2026-05-08 02:49 43.93162 -72.66041 12272 ft 306 kts 281°
2026-05-08 02:49 43.93624 -72.68857 11688 ft 293 kts 281°
2026-05-08 02:49 43.94072 -72.71577 11116 ft 284 kts 282°
2026-05-08 02:49 43.94502 -72.74204 10720 ft 271 kts 282°
2026-05-08 02:50 43.94903 -72.76667 10618 ft 264 kts 282°
2026-05-08 02:50 43.95313 -72.79178 10513 ft 264 kts 282°
2026-05-08 02:50 43.95725 -72.81707 10408 ft 278 kts 282°
2026-05-08 02:50 43.96143 -72.84275 10263 ft 266 kts 282°
2026-05-08 02:51 43.96537 -72.86702 10145 ft 250 kts 282°
2026-05-08 02:51 43.96911 -72.88999 10074 ft 240 kts 282°
2026-05-08 02:51 43.97276 -72.91251 9869 ft 241 kts 282°
2026-05-08 02:51 43.97674 -72.93545 9603 ft 248 kts 288°
2026-05-08 02:52 43.98632 -72.95557 9293 ft 254 kts 315°
2026-05-08 02:52 44.00167 -72.96756 9128 ft 254 kts 339°
2026-05-08 02:52 44.01930 -72.96996 8860 ft 258 kts
2026-05-08 02:52 44.03709 -72.96718 8561 ft 257 kts
2026-05-08 02:53 44.05485 -72.96393 8265 ft 256 kts
2026-05-08 02:53 44.07251 -72.96066 7972 ft 256 kts
2026-05-08 02:53 44.09019 -72.95739 7662 ft 256 kts
2026-05-08 02:53 44.10791 -72.95416 7358 ft 257 kts
2026-05-08 02:54 44.12566 -72.95094 7052 ft 257 kts
2026-05-08 02:54 44.14337 -72.94775 6744 ft 257 kts
2026-05-08 02:54 44.16111 -72.94457 6426 ft 257 kts
2026-05-08 02:54 44.17883 -72.94141 6127 ft 257 kts
2026-05-08 02:55 44.19635 -72.93828 5813 ft 257 kts
2026-05-08 02:55 44.23074 -72.93214 5529 ft 241 kts
2026-05-08 02:55 44.24714 -72.92920 5405 ft 235 kts
2026-05-08 02:56 44.26319 -72.92634 5324 ft 230 kts
2026-05-08 02:56 44.27899 -72.92352 5224 ft 229 kts
2026-05-08 02:56 44.29483 -72.92070 5139 ft 231 kts
2026-05-08 02:56 44.31098 -72.91784 4876 ft 235 kts
2026-05-08 02:57 44.32708 -72.91791 4590 ft 231 kts 340°
2026-05-08 02:57 44.33940 -72.93115 4363 ft 224 kts 305°
2026-05-08 02:57 44.34866 -72.94865 4093 ft 226 kts 306°
2026-05-08 02:57 44.35827 -72.96622 3787 ft 228 kts 307°
2026-05-08 02:58 44.36835 -72.98343 3460 ft 229 kts 309°
2026-05-08 02:58 44.37875 -73.00041 3149 ft 229 kts 310°
2026-05-08 02:58 44.38887 -73.01682 2810 ft 215 kts 309°
2026-05-08 02:58 44.39829 -73.03210 2510 ft 200 kts 308°
2026-05-08 02:59 44.40700 -73.04631 2241 ft 184 kts 309°
2026-05-08 02:59 44.41503 -73.05936 1993 ft 169 kts 311°
2026-05-08 02:59 44.42251 -73.07152 1774 ft 166 kts 310°
2026-05-08 02:59 44.42963 -73.08307 1524 ft 147 kts 311°
2026-05-08 03:00 44.43587 -73.09323 1324 ft 129 kts 310°
2026-05-08 03:00 44.44153 -73.10239 1180 ft 124 kts 311°
2026-05-08 03:00 44.44706 -73.11209 988 ft 133 kts 309°
2026-05-08 03:00 44.45317 -73.12204 842 ft 138 kts 312°
2026-05-08 03:01 44.45945 -73.13195 599 ft 133 kts 311°
2026-05-08 03:01 44.46563 -73.14172 379 ft 133 kts 311°
2026-05-08 03:01 44.47101 -73.15029 337 ft 90 kts 311°
2026-05-08 03:01 44.47367 -73.15456 333 ft 27 kts 311°
2026-05-08 03:02 44.47430 -73.15558 332 ft 17 kts 310°
2026-05-08 03:02 44.47527 -73.15719 331 ft 8 kts 310°
2026-05-08 03:02 44.47540 -73.15810 328 ft 12 kts 239°
2026-05-08 03:02 44.47463 -73.15901 328 ft 15 kts 199°
2026-05-08 03:03 44.47393 -73.15847 330 ft 0 kts 131°
2026-05-08 03:03 44.47363 -73.15800 326 ft 10 kts 131°
2026-05-08 03:04 44.47307 -73.15709 328 ft 15 kts 130°
2026-05-08 03:04 44.47244 -73.15608 328 ft 12 kts 131°
2026-05-08 03:04 44.47191 -73.15523 329 ft 11 kts 131°
2026-05-08 03:04 44.47157 -73.15466 330 ft 6 kts 131°
2026-05-08 03:05 44.47134 -73.15445 332 ft 2 kts 161°
2026-05-08 03:05 44.47130 -73.15444 334 ft 0 kts 165°
2026-05-08 03:05 44.47128 -73.15444 330 ft 1 kts 171°
2026-05-08 03:06 44.47122 -73.15448 331 ft 0 kts 204°
2026-05-08 03:06 44.47111 -73.15458 335 ft 4 kts 214°
2026-05-08 03:06 44.47082 -73.15485 332 ft 6 kts 210°
2026-05-08 03:06 44.47055 -73.15481 334 ft 0 kts 148°
2026-05-08 03:07 44.47054 -73.15480 336 ft 1 kts 148°
2026-05-08 03:07 44.47049 -73.15477 336 ft 0 kts 158°